Location: Grange Rosano
(44.4500°N, 6.9667°E)
Time: 08:13:44
(UTC+00:00)

Resurs 1-4 Rocket - Pass Details

Date: 26 May 2022
Orbit: 800 x 813 km, 98.7° (Epoch: 01 July)

Event Time Altitude Azimuth Distance (km) Brightness Sun altitude
Rises 01:22:02 0° 12° (NNE) 3,321 6.7 -19.6°
Reaches altitude 10° 01:24:22 10° 11° (NNE) 2,387 5.6 -19.4°
Maximum altitude 01:29:38 78° 286° (WNW) 826 2.1 -18.9°
Enters shadow 01:31:58 35° 206° (SSW) 1,288 2.6 -18.7°
